Year,Month,Day,Hour,Minute,Value (Times are PST for temperature in C)
2016,07,19,08,06,15.00
2016,07,19,08,07,15.00
2016,07,19,08,08,15.10
2016,07,19,08,09,15.10
2016,07,19,08,10,15.10
2016,07,19,08,11,15.10
2016,07,19,08,12,15.10
2016,07,19,08,13,15.10
2016,07,19,08,14,15.10
2016,07,19,08,15,15.10
2016,07,19,08,16,15.10
2016,07,19,08,17,15.10
2016,07,19,08,18,15.10
2016,07,19,08,19,15.10
2016,07,19,08,20,15.10
2016,07,19,08,21,15.10
2016,07,19,08,22,15.10
2016,07,19,08,23,15.10
2016,07,19,08,24,15.10
2016,07,19,08,25,15.20
2016,07,19,08,26,15.20
2016,07,19,08,27,15.20
2016,07,19,08,28,15.20
2016,07,19,08,29,15.20
2016,07,19,08,30,15.20
2016,07,19,08,31,15.20
2016,07,19,08,32,15.20
2016,07,19,08,33,15.20
2016,07,19,08,34,15.20
2016,07,19,08,35,15.30
2016,07,19,08,36,15.30
2016,07,19,08,37,15.30
2016,07,19,08,38,15.30
2016,07,19,08,39,15.30
2016,07,19,08,40,15.30
2016,07,19,08,41,15.30
2016,07,19,08,42,15.20
2016,07,19,08,43,15.30
2016,07,19,08,44,15.20
2016,07,19,08,45,15.30
2016,07,19,08,46,15.30
2016,07,19,08,47,15.30
2016,07,19,08,48,15.30
2016,07,19,08,49,15.30
2016,07,19,08,50,15.30
2016,07,19,08,51,15.30
2016,07,19,08,52,15.30
2016,07,19,08,53,15.30
2016,07,19,08,54,15.30
2016,07,19,08,55,15.30
2016,07,19,08,56,15.30
2016,07,19,08,57,15.30
2016,07,19,08,58,15.30
2016,07,19,08,59,15.30
2016,07,19,09,00,15.30
2016,07,19,09,01,15.40
2016,07,19,09,02,15.40
2016,07,19,09,03,15.40
2016,07,19,09,04,15.40
2016,07,19,09,05,15.30
2016,07,19,09,06,15.30
2016,07,19,09,07,15.30
2016,07,19,09,08,15.30
2016,07,19,09,09,15.30
2016,07,19,09,10,15.30
2016,07,19,09,11,15.40
2016,07,19,09,12,15.40
2016,07,19,09,13,15.40
2016,07,19,09,14,15.40
2016,07,19,09,15,15.40
2016,07,19,09,16,15.50
2016,07,19,09,17,15.50
2016,07,19,09,18,15.60
2016,07,19,09,19,15.60
2016,07,19,09,20,15.60
2016,07,19,09,21,15.60
2016,07,19,09,22,15.60
2016,07,19,09,23,15.60
2016,07,19,09,24,15.60
2016,07,19,09,25,15.60
2016,07,19,09,26,15.50
2016,07,19,09,27,15.50
2016,07,19,09,28,15.50
2016,07,19,09,29,15.40
2016,07,19,09,30,15.40
2016,07,19,09,31,15.40
2016,07,19,09,32,15.40
2016,07,19,09,33,15.30
2016,07,19,09,34,15.30
2016,07,19,09,35,15.20
2016,07,19,09,36,15.10
2016,07,19,09,37,15.00
2016,07,19,09,38,15.00
2016,07,19,09,39,15.00
2016,07,19,09,40,14.90
2016,07,19,09,41,14.90
2016,07,19,09,42,14.90
2016,07,19,09,43,14.80
2016,07,19,09,44,14.80
2016,07,19,09,45,14.80
2016,07,19,09,46,14.80
2016,07,19,09,47,14.70
2016,07,19,09,48,14.70
2016,07,19,09,49,14.70
2016,07,19,09,50,14.80
2016,07,19,09,51,14.80
2016,07,19,09,52,14.80
2016,07,19,09,53,14.90
2016,07,19,09,54,14.90
2016,07,19,09,55,14.90
2016,07,19,09,56,14.90
2016,07,19,09,57,15.00
2016,07,19,09,58,15.00
2016,07,19,09,59,15.00
2016,07,19,10,00,15.10
2016,07,19,10,01,15.10
2016,07,19,10,02,15.20
2016,07,19,10,03,15.20
2016,07,19,10,04,15.20
2016,07,19,10,05,15.20
2016,07,19,10,06,15.20
2016,07,19,10,07,15.20
2016,07,19,10,08,15.20
2016,07,19,10,09,15.20
2016,07,19,10,10,15.30
2016,07,19,10,11,15.30
2016,07,19,10,12,15.30
2016,07,19,10,13,15.30
2016,07,19,10,14,15.40
2016,07,19,10,15,15.40
2016,07,19,10,16,15.50
2016,07,19,10,17,15.50
2016,07,19,10,18,15.50
2016,07,19,10,19,15.60
2016,07,19,10,20,15.70
2016,07,19,10,21,15.70
2016,07,19,10,22,15.70
2016,07,19,10,23,15.70
2016,07,19,10,24,15.70
2016,07,19,10,25,15.60
2016,07,19,10,26,15.60
2016,07,19,10,27,15.50
2016,07,19,10,28,15.40
2016,07,19,10,29,15.30
2016,07,19,10,30,15.30
2016,07,19,10,31,15.30
2016,07,19,10,32,15.20
2016,07,19,10,33,15.20
2016,07,19,10,34,15.20
2016,07,19,10,35,15.20
2016,07,19,10,36,15.20
2016,07,19,10,37,15.20
2016,07,19,10,38,15.30
2016,07,19,10,39,15.30
2016,07,19,10,40,15.40
2016,07,19,10,41,15.40
2016,07,19,10,42,15.50
2016,07,19,10,43,15.50
2016,07,19,10,44,15.50
2016,07,19,10,45,15.60
2016,07,19,10,46,15.60
2016,07,19,10,47,15.70
2016,07,19,10,48,15.70
2016,07,19,10,49,15.70
2016,07,19,10,50,15.80
2016,07,19,10,51,15.80
2016,07,19,10,52,15.80
2016,07,19,10,53,15.90
2016,07,19,10,54,15.90
2016,07,19,10,55,16.00
2016,07,19,10,56,15.90
2016,07,19,10,57,15.90
2016,07,19,10,58,15.90
2016,07,19,10,59,15.90
2016,07,19,11,00,15.90
2016,07,19,11,01,15.90
2016,07,19,11,02,16.00
2016,07,19,11,03,16.10
2016,07,19,11,04,16.20
2016,07,19,11,05,16.20
2016,07,19,11,06,16.20
2016,07,19,11,07,16.20
2016,07,19,11,08,16.20
2016,07,19,11,09,16.30
2016,07,19,11,10,16.30
2016,07,19,11,11,16.40
2016,07,19,11,12,16.50
2016,07,19,11,13,16.60
2016,07,19,11,14,16.60
2016,07,19,11,15,16.60
2016,07,19,11,16,16.60
2016,07,19,11,17,16.60
2016,07,19,11,18,16.60
2016,07,19,11,19,16.60
2016,07,19,11,20,16.70
2016,07,19,11,21,16.70
2016,07,19,11,22,16.70
2016,07,19,11,23,16.70
2016,07,19,11,24,16.70
2016,07,19,11,25,16.70
2016,07,19,11,26,16.80
2016,07,19,11,27,16.80
2016,07,19,11,28,16.90
2016,07,19,11,29,17.00
2016,07,19,11,30,17.20
2016,07,19,11,31,17.30
2016,07,19,11,32,17.40
2016,07,19,11,33,17.50
2016,07,19,11,34,17.60
2016,07,19,11,35,17.70
2016,07,19,11,36,17.80
2016,07,19,11,37,17.90
2016,07,19,11,38,17.90
2016,07,19,11,39,18.00
2016,07,19,11,40,18.00
2016,07,19,11,41,18.10
2016,07,19,11,42,18.10
2016,07,19,11,43,18.10
2016,07,19,11,44,18.20
2016,07,19,11,45,18.20
2016,07,19,11,46,18.20
2016,07,19,11,47,18.20
2016,07,19,11,48,18.20
2016,07,19,11,49,18.20
2016,07,19,11,50,18.20
2016,07,19,11,51,18.20
2016,07,19,11,52,18.20
2016,07,19,11,53,18.20
2016,07,19,11,54,18.20
2016,07,19,11,55,18.20
2016,07,19,11,56,18.20
2016,07,19,11,57,18.20
2016,07,19,11,58,18.20
2016,07,19,11,59,18.20
2016,07,19,12,00,18.30
2016,07,19,12,01,18.30
2016,07,19,12,02,18.40
2016,07,19,12,03,18.40
2016,07,19,12,04,18.50
2016,07,19,12,05,18.50
2016,07,19,12,06,18.60
2016,07,19,12,07,18.60
2016,07,19,12,08,18.70
2016,07,19,12,09,18.70
2016,07,19,12,10,18.70
2016,07,19,12,11,18.80
2016,07,19,12,12,18.80
2016,07,19,12,13,18.70
2016,07,19,12,14,18.80
2016,07,19,12,15,18.90
2016,07,19,12,16,18.90
2016,07,19,12,17,19.00
2016,07,19,12,18,19.00
2016,07,19,12,19,19.10
2016,07,19,12,20,19.20
2016,07,19,12,21,19.20
2016,07,19,12,22,19.30
2016,07,19,12,23,19.40
2016,07,19,12,24,19.40
2016,07,19,12,25,19.50
2016,07,19,12,26,19.60
2016,07,19,12,27,19.70
2016,07,19,12,28,19.70
2016,07,19,12,29,19.80
2016,07,19,12,30,19.80
2016,07,19,12,31,19.80
2016,07,19,12,32,19.80
2016,07,19,12,33,19.80
2016,07,19,12,34,19.90
2016,07,19,12,35,19.90
2016,07,19,12,36,19.90
2016,07,19,12,37,19.90
2016,07,19,12,38,19.90
2016,07,19,12,39,19.80
2016,07,19,12,40,19.90
2016,07,19,12,41,19.90
2016,07,19,12,42,19.90
2016,07,19,12,43,19.80
2016,07,19,12,44,19.70
2016,07,19,12,45,19.60
2016,07,19,12,46,19.40
2016,07,19,12,47,19.40
2016,07,19,12,48,19.20
2016,07,19,12,49,19.00
2016,07,19,12,50,18.90
2016,07,19,12,51,18.80
2016,07,19,12,52,18.70
2016,07,19,12,53,18.60
2016,07,19,12,54,18.60
2016,07,19,12,55,18.70
2016,07,19,12,56,18.70
2016,07,19,12,57,18.70
2016,07,19,12,58,18.80
2016,07,19,12,59,18.80
2016,07,19,13,00,18.90
2016,07,19,13,01,19.10
2016,07,19,13,02,19.10
2016,07,19,13,03,19.20
2016,07,19,13,04,19.20
2016,07,19,13,05,19.20
2016,07,19,13,06,19.30
2016,07,19,13,07,19.30
2016,07,19,13,08,19.30
2016,07,19,13,09,19.30
2016,07,19,13,10,19.30
2016,07,19,13,11,19.40
2016,07,19,13,12,19.40
2016,07,19,13,13,19.40
2016,07,19,13,14,19.30
2016,07,19,13,15,19.40
2016,07,19,13,16,19.40
2016,07,19,13,17,19.40
2016,07,19,13,18,19.40
2016,07,19,13,19,19.40
2016,07,19,13,20,19.50
2016,07,19,13,21,19.50
2016,07,19,13,22,19.60
2016,07,19,13,23,19.70
2016,07,19,13,24,19.80
2016,07,19,13,25,19.80
2016,07,19,13,26,19.80
2016,07,19,13,27,19.80
2016,07,19,13,28,19.80
2016,07,19,13,29,19.80
2016,07,19,13,30,19.80
2016,07,19,13,31,19.80
2016,07,19,13,32,19.90
2016,07,19,13,33,19.90
2016,07,19,13,34,19.90
2016,07,19,13,35,20.00
2016,07,19,13,36,20.10
2016,07,19,13,37,20.10
2016,07,19,13,38,20.10
2016,07,19,13,39,20.10
2016,07,19,13,40,20.10
2016,07,19,13,41,20.00
2016,07,19,13,42,19.80
2016,07,19,13,43,19.60
2016,07,19,13,44,19.40
2016,07,19,13,45,19.30
2016,07,19,13,46,19.10
2016,07,19,13,47,19.00
2016,07,19,13,48,19.00
2016,07,19,13,49,18.90
2016,07,19,13,50,18.90
2016,07,19,13,51,18.90
2016,07,19,13,52,18.90
2016,07,19,13,53,18.80
2016,07,19,13,54,18.70
2016,07,19,13,55,18.50
2016,07,19,13,56,18.40
2016,07,19,13,57,18.30
2016,07,19,13,58,18.30
2016,07,19,13,59,18.40
2016,07,19,14,00,18.50
2016,07,19,14,01,18.50
2016,07,19,14,02,18.60
2016,07,19,14,03,18.50
2016,07,19,14,04,18.50
2016,07,19,14,05,18.50
2016,07,19,14,06,18.60
2016,07,19,14,07,18.60
2016,07,19,14,08,18.60
2016,07,19,14,09,18.70
2016,07,19,14,10,18.80
2016,07,19,14,11,18.80
2016,07,19,14,12,18.90
2016,07,19,14,13,18.90
2016,07,19,14,14,18.90
2016,07,19,14,15,18.80
2016,07,19,14,16,18.80
2016,07,19,14,17,18.70
2016,07,19,14,18,18.70
2016,07,19,14,19,18.70
2016,07,19,14,20,18.70
2016,07,19,14,21,18.70
2016,07,19,14,22,18.70
2016,07,19,14,23,18.70
2016,07,19,14,24,18.70
2016,07,19,14,25,18.70
2016,07,19,14,26,18.70
2016,07,19,14,27,18.80
2016,07,19,14,28,18.90
2016,07,19,14,29,19.00
2016,07,19,14,30,19.10
2016,07,19,14,31,19.10
2016,07,19,14,32,19.20
2016,07,19,14,33,19.20
2016,07,19,14,34,19.30
2016,07,19,14,35,19.40
2016,07,19,14,36,19.50
2016,07,19,14,37,19.50
2016,07,19,14,38,19.50
2016,07,19,14,39,19.40
2016,07,19,14,40,19.30
2016,07,19,14,41,19.20
2016,07,19,14,42,19.20
2016,07,19,14,43,19.30
2016,07,19,14,44,19.30
2016,07,19,14,45,19.40
2016,07,19,14,46,19.40
2016,07,19,14,47,19.50
2016,07,19,14,48,19.60
2016,07,19,14,49,19.70
2016,07,19,14,50,19.90
2016,07,19,14,51,20.00
2016,07,19,14,52,20.10
2016,07,19,14,53,20.20
2016,07,19,14,54,20.30
2016,07,19,14,55,20.50
2016,07,19,14,56,20.70
2016,07,19,14,57,20.80
2016,07,19,14,58,20.90
2016,07,19,14,59,21.00
2016,07,19,15,00,21.20
2016,07,19,15,01,21.30
2016,07,19,15,02,21.30
2016,07,19,15,03,21.40
2016,07,19,15,04,21.40
2016,07,19,15,05,21.50
2016,07,19,15,06,21.60
2016,07,19,15,07,21.70
2016,07,19,15,08,21.80
2016,07,19,15,09,21.90
2016,07,19,15,10,22.00
2016,07,19,15,11,22.00
2016,07,19,15,12,22.10
2016,07,19,15,13,22.20
2016,07,19,15,14,22.20
2016,07,19,15,15,22.30
2016,07,19,15,16,22.30
2016,07,19,15,17,22.30
2016,07,19,15,18,22.40
2016,07,19,15,19,22.40
2016,07,19,15,20,22.50
2016,07,19,15,21,22.60
2016,07,19,15,22,22.60
2016,07,19,15,23,22.60
2016,07,19,15,24,22.60
2016,07,19,15,25,22.40
2016,07,19,15,26,22.30
2016,07,19,15,27,22.20
2016,07,19,15,28,22.00
2016,07,19,15,29,21.90
2016,07,19,15,30,21.70
2016,07,19,15,31,21.60
2016,07,19,15,32,21.60
2016,07,19,15,33,21.60
2016,07,19,15,34,21.60
2016,07,19,15,35,21.70
2016,07,19,15,36,21.80
2016,07,19,15,37,21.70
2016,07,19,15,38,21.70
2016,07,19,15,39,21.70
2016,07,19,15,40,21.70
2016,07,19,15,41,21.70
2016,07,19,15,42,21.70
2016,07,19,15,43,21.60
2016,07,19,15,44,21.50
2016,07,19,15,45,21.40
2016,07,19,15,46,21.40
2016,07,19,15,47,21.30
2016,07,19,15,48,21.30
2016,07,19,15,49,21.30
2016,07,19,15,50,21.30
2016,07,19,15,51,21.30
2016,07,19,15,52,21.30
2016,07,19,15,53,21.40
2016,07,19,15,54,21.50
2016,07,19,15,55,21.50
2016,07,19,15,56,21.40
2016,07,19,15,57,21.30
2016,07,19,15,58,21.20
2016,07,19,15,59,21.10
2016,07,19,16,00,21.10
2016,07,19,16,01,21.10
2016,07,19,16,02,21.20
2016,07,19,16,03,21.30
2016,07,19,16,04,21.50
2016,07,19,16,05,21.60
2016,07,19,16,06,21.70
2016,07,19,16,07,21.70
2016,07,19,16,08,21.70
2016,07,19,16,09,21.60
2016,07,19,16,10,21.60
2016,07,19,16,11,21.50
2016,07,19,16,12,21.30
2016,07,19,16,13,21.30
2016,07,19,16,14,21.20
2016,07,19,16,15,21.10
2016,07,19,16,16,21.00
2016,07,19,16,17,21.00
2016,07,19,16,18,21.00
2016,07,19,16,19,21.00
2016,07,19,16,20,21.00
2016,07,19,16,21,20.90
2016,07,19,16,22,20.90
2016,07,19,16,23,20.90
2016,07,19,16,24,20.90
2016,07,19,16,25,20.90
2016,07,19,16,26,20.90
2016,07,19,16,27,20.90
2016,07,19,16,28,20.90
2016,07,19,16,29,20.90
2016,07,19,16,30,20.90
2016,07,19,16,31,20.90
2016,07,19,16,32,21.00
2016,07,19,16,33,21.10
2016,07,19,16,34,21.10
2016,07,19,16,35,21.10
2016,07,19,16,36,21.10
2016,07,19,16,37,21.10
2016,07,19,16,38,21.10
2016,07,19,16,39,21.00
2016,07,19,16,40,21.00
2016,07,19,16,41,20.90
2016,07,19,16,42,20.90
2016,07,19,16,43,20.90
2016,07,19,16,44,20.80
2016,07,19,16,45,20.80
2016,07,19,16,46,20.80
2016,07,19,16,47,20.80
2016,07,19,16,48,20.90
2016,07,19,16,49,20.90
2016,07,19,16,50,20.90
2016,07,19,16,51,21.00
2016,07,19,16,52,21.10
2016,07,19,16,53,21.10
2016,07,19,16,54,21.20
2016,07,19,16,55,21.30
2016,07,19,16,56,21.30
2016,07,19,16,57,21.40
2016,07,19,16,58,21.30
2016,07,19,16,59,21.20
2016,07,19,17,00,21.10
2016,07,19,17,01,21.00
2016,07,19,17,02,21.00
2016,07,19,17,03,20.90
2016,07,19,17,04,20.90
2016,07,19,17,05,20.80
2016,07,19,17,06,20.80
2016,07,19,17,07,20.90
2016,07,19,17,08,20.80
2016,07,19,17,09,20.90
2016,07,19,17,10,20.90
2016,07,19,17,11,20.90
2016,07,19,17,12,20.90
2016,07,19,17,13,20.90
2016,07,19,17,14,20.90
2016,07,19,17,15,21.00
2016,07,19,17,16,21.10
2016,07,19,17,17,21.10
2016,07,19,17,18,21.10
2016,07,19,17,19,21.00
2016,07,19,17,20,21.00
2016,07,19,17,21,21.00
2016,07,19,17,22,21.00
2016,07,19,17,23,21.00
2016,07,19,17,24,21.10
2016,07,19,17,25,21.10
2016,07,19,17,26,21.00
2016,07,19,17,27,21.00
2016,07,19,17,28,20.90
2016,07,19,17,29,20.80
2016,07,19,17,30,20.60
2016,07,19,17,31,20.50
2016,07,19,17,32,20.50
2016,07,19,17,33,20.50
2016,07,19,17,34,20.50
2016,07,19,17,35,20.50
2016,07,19,17,36,20.40
2016,07,19,17,37,20.40
2016,07,19,17,38,20.40
2016,07,19,17,39,20.30
2016,07,19,17,40,20.20
2016,07,19,17,41,20.10
2016,07,19,17,42,20.00
2016,07,19,17,43,19.90
2016,07,19,17,44,19.90
2016,07,19,17,45,19.90
2016,07,19,17,46,19.90
2016,07,19,17,47,19.90
2016,07,19,17,48,20.00
2016,07,19,17,49,20.00
2016,07,19,17,50,20.10
2016,07,19,17,51,20.10
2016,07,19,17,52,20.10
2016,07,19,17,53,20.00
2016,07,19,17,54,20.00
2016,07,19,17,55,19.90
2016,07,19,17,56,19.80
2016,07,19,17,57,19.80
2016,07,19,17,58,19.70
2016,07,19,17,59,19.60
2016,07,19,18,00,19.50
2016,07,19,18,01,19.50
2016,07,19,18,02,19.40
2016,07,19,18,03,19.30
2016,07,19,18,04,19.30
2016,07,19,18,05,19.30
2016,07,19,18,06,19.20
2016,07,19,18,07,19.20
2016,07,19,18,08,19.20
2016,07,19,18,09,19.20
2016,07,19,18,10,19.10
2016,07,19,18,11,19.10
2016,07,19,18,12,19.10
2016,07,19,18,13,19.00
2016,07,19,18,14,19.00
2016,07,19,18,15,19.00
2016,07,19,18,16,19.00
2016,07,19,18,17,19.00
2016,07,19,18,18,19.00
2016,07,19,18,19,19.00
2016,07,19,18,20,19.00
2016,07,19,18,21,19.00
2016,07,19,18,22,19.00
2016,07,19,18,23,19.00
2016,07,19,18,24,19.00
2016,07,19,18,25,19.00
2016,07,19,18,26,18.90
2016,07,19,18,27,18.90
2016,07,19,18,28,18.90
2016,07,19,18,29,18.80
2016,07,19,18,30,18.80
2016,07,19,18,31,18.80
2016,07,19,18,32,18.80
2016,07,19,18,33,18.80
2016,07,19,18,34,18.90
2016,07,19,18,35,18.90
2016,07,19,18,36,18.90
2016,07,19,18,37,18.90
2016,07,19,18,38,18.90
2016,07,19,18,39,18.90
2016,07,19,18,40,18.90
2016,07,19,18,41,18.90
2016,07,19,18,42,18.90
2016,07,19,18,43,18.90
2016,07,19,18,44,18.80
2016,07,19,18,45,18.80
2016,07,19,18,46,18.80
2016,07,19,18,47,18.90
2016,07,19,18,48,18.90
2016,07,19,18,49,18.90
2016,07,19,18,50,18.90
2016,07,19,18,51,18.90
2016,07,19,18,52,18.90
2016,07,19,18,53,18.90
2016,07,19,18,54,18.80
2016,07,19,18,55,18.80
2016,07,19,18,56,18.80
2016,07,19,18,57,18.80
2016,07,19,18,58,18.80
2016,07,19,18,59,18.80
2016,07,19,19,00,18.80
2016,07,19,19,01,18.80
2016,07,19,19,02,18.90
2016,07,19,19,03,18.90
2016,07,19,19,04,18.90
2016,07,19,19,05,18.90
2016,07,19,19,06,18.90
2016,07,19,19,07,18.90
2016,07,19,19,08,18.90
2016,07,19,19,09,18.90
2016,07,19,19,10,18.90
2016,07,19,19,11,18.90
2016,07,19,19,12,18.90
2016,07,19,19,13,18.90
2016,07,19,19,14,18.90
2016,07,19,19,15,18.80
2016,07,19,19,16,18.80
2016,07,19,19,17,18.80
2016,07,19,19,18,18.80
2016,07,19,19,19,18.80
2016,07,19,19,20,18.80
2016,07,19,19,21,18.80
2016,07,19,19,22,18.80
2016,07,19,19,23,18.80
2016,07,19,19,24,18.80
2016,07,19,19,25,18.80
2016,07,19,19,42,18.60
2016,07,19,19,43,18.70
2016,07,19,19,44,18.70
2016,07,19,19,45,18.70
2016,07,19,19,46,18.70
2016,07,19,19,47,18.70
2016,07,19,19,48,18.70
2016,07,19,19,49,18.70
2016,07,19,19,50,18.70
2016,07,19,19,51,18.70
2016,07,19,19,52,18.70
2016,07,19,19,53,18.70
